User: anonymous   Login
Location: Unspecified
(0.0000°N, 0.0000°E)
Time: 20:01:15
(UTC+00:00)
Language:

SOMP - Orbit

View from above orbital plane
View from above orbital plane
View from above satellite
View from above satellite

Ground track
Ground track

The orbit data is extracted from the following two-line orbital elements,

1 39135U 13015F   18016.94277365 +.00000701 +00000-0 +45826-4 0  9997
2 39135 064.8689 267.4198 0030824 254.3161 105.4563 15.16320828261324
Epoch (UTC): 16 January 2018 22:37:35
Eccentricity: 0.0030824
inclination: 64.8689°
perigee height: 496 km
apogee height: 538 km
right ascension of ascending node: 267.4198°
argument of perigee: 254.3161°
revolutions per day: 15.16320828
mean anomaly at epoch: 105.4563°
orbit number at epoch: 26132

The dashed part of the orbit path shows where the satellite is in the earth's shadow,  

DLR